Find Starlink 32276

NORAD ID: 60944 Int'l Des: 2024-155 Owner: SPXS Country: US Constellation: starlink operational
LEOCIRCULAR

Current View

Loading 3D Globe...

About Starlink 32276

Starlink 32276 (NORAD 60944) is a starlink constellation satellite (v2 mini) launched Aug 31, 2024 by SPXS of US. It operates in LEO, CIRCULAR orbit with a mass of 730.00 kg.

About Starlink 32276

Description loading...

Upcoming Passes

Passes for default location (London). Set your location on the main map for personalized predictions.

Altitude History

Loading altitude history...

Two-Line Element Set

1 60944U 24155W 26170.84974927 .00002791 00000-0 93637-4 0 9997
2 60944 53.1620 15.0293 0000842 110.8081 249.3012 15.34416910102036
Epoch: Jun 19, 2026 • Age: 57 hours

Current Status

Altitude 468.6 km
Velocity 7.64 km/s
Sub-Earth Point 53.14°N, 113.92°E
Launch Date Aug 31, 2024
Age 1.8 years
Type internet

Technical Details

Classification Payload
Mass 730.00 kg
Dry Mass 700.00 kg
Total Mass 730.00 kg
Length 0.30 m
Diameter 4.10 m
Span 29.00 m
Shape Box + pan
Manufacturer SPXS
Bus Type Starlink V2M
Phase Status In Orbit
Owner/State SPXS/US

Most Searched